GFSWCAN_sfc_wetblb_030.txt.gz
Wetbulb
52.81 53.13 53.76 55.02 57.17 57.23 56.01 55.36 54.68 53.97 53.30 52.07 51.27 51.44 51.42 51.44 52.13 45.65 42.65 43.98 39.18 35.37 37.52 39.38 40.42 35.88 34.80 32.75 29.60 31.78 31.37 30.82 28.47 25.03 24.03 24.88 21.63 26.37 23.72 25.51 25.05 23.35 19.09 18.67 20.57 14.94 16.24 33.37 31.81 26.47 29.05 31.31 33.41 33.63
51.89 52.12 52.19 52.45 53.06 54.92 57.05 56.25 55.56 54.82 53.96 53.53 51.41 50.70 50.98 50.96 51.42 48.21 41.22 45.35 44.70 37.16 36.05 42.94 43.03 42.15 40.15 39.01 35.06 32.56 31.86 31.18 31.91 26.79 26.14 23.43 24.28 22.57 24.91 20.72 27.67 23.37 26.99 22.08 23.64 23.35 31.37 32.82 31.97 33.92 34.53 33.43 33.48 33.09
51.07 51.31 51.50 51.80 52.22 52.54 53.46 55.56 56.54 55.61 54.97 54.00 52.69 51.23 50.36 50.42 50.86 48.35 42.26 43.09 40.23 36.52 35.98 37.71 38.50 42.56 42.68 42.05 41.30 33.75 33.02 35.70 33.74 34.96 30.52 26.98 23.06 26.11 21.33 23.35 24.15 29.89 31.01 26.51 26.43 29.11 31.16 33.37 33.60 34.86 35.50 34.35 35.06 34.72
50.49 50.71 50.92 51.10 51.41 51.73 52.28 52.99 54.63 56.25 55.87 54.82 53.44 52.68 51.00 50.58 50.25 48.59 42.33 43.53 40.63 37.34 32.50 36.33 42.40 39.12 42.22 41.33 42.20 41.80 39.79 39.07 37.29 34.98 30.91 25.48 24.29 29.54 23.47 26.88 25.62 30.65 29.29 26.84 26.29 30.17 31.29 32.01 32.68 34.31 35.23 35.65 34.06 33.00
50.05 50.23 50.47 50.60 50.87 51.09 51.33 51.93 52.41 53.28 55.54 55.43 54.51 53.42 52.52 51.66 50.30 46.03 43.21 44.21 44.34 37.33 32.46 34.34 38.31 40.68 40.97 40.96 40.46 40.55 39.64 36.68 34.56 32.36 29.73 27.81 29.59 28.52 27.30 27.63 24.47 32.42 29.88 25.10 26.56 30.65 29.87 29.20 33.09 35.74 33.84 31.78 31.80 31.70
49.63 49.75 49.74 49.76 50.08 50.49 50.99 51.24 51.57 52.08 53.18 54.50 54.95 54.08 53.18 51.78 50.14 45.85 41.77 43.96 46.08 42.40 34.66 27.18 36.37 36.74 38.21 39.40 39.76 39.50 38.31 36.70 35.94 33.97 32.00 32.67 34.14 31.71 24.07 20.01 30.47 34.47 34.42 34.26 31.38 32.11 31.87 32.83 35.13 32.91 30.53 31.57 32.36 32.12
48.73 49.06 49.38 49.09 49.13 49.55 50.90 51.47 51.45 51.45 51.96 53.27 54.32 54.00 52.98 51.85 47.94 43.40 41.00 43.18 48.07 43.89 36.92 29.48 27.77 35.89 37.70 37.48 36.81 35.98 37.34 36.45 35.97 34.28 31.76 31.24 30.82 32.60 22.04 24.36 32.37 33.69 33.96 33.59 33.29 31.03 30.10 32.59 29.84 30.98 32.08 32.64 33.57 32.80
48.75 48.84 48.94 48.91 49.11 49.58 49.71 50.17 51.04 51.37 51.46 52.56 53.15 52.97 52.36 51.55 48.45 44.07 44.22 47.76 47.15 42.62 40.17 31.28 27.78 30.37 36.28 32.21 31.42 35.41 33.09 35.77 36.08 33.66 33.56 32.15 32.44 32.01 26.58 31.97 33.33 33.73 33.50 33.20 33.70 33.04 32.18 31.24 30.57 30.56 31.63 31.66 30.65 30.51
49.01 49.13 49.27 49.29 49.21 49.53 49.50 49.48 50.44 51.48 51.16 52.16 51.99 51.67 50.46 46.90 43.04 43.26 48.41 49.05 45.76 41.21 33.45 32.09 29.15 21.97 33.66 32.12 32.62 32.73 33.04 26.42 32.96 28.42 32.28 31.15 26.27 26.07 31.21 31.89 32.19 32.62 32.23 32.33 32.95 32.75 30.56 29.76 28.58 28.91 28.72 29.73 29.09 30.95
49.19 49.34 49.46 49.55 49.58 49.50 49.46 49.30 49.82 50.72 50.79 50.52 47.85 44.27 40.02 43.36 49.06 48.04 43.81 40.24 40.26 40.43 39.41 33.68 31.53 24.92 30.73 27.33 23.94 27.95 25.66 23.98 27.09 29.58 31.75 29.98 27.12 32.87 35.02 35.08 35.38 34.02 34.80 33.65 30.79 28.55 28.28 27.59 27.95 27.31 28.13 30.49 32.06 31.99
49.21 49.31 49.39 49.61 49.74 49.55 49.45 49.43 49.60 49.88 48.65 43.25 41.73 40.37 44.65 49.24 43.53 40.51 35.92 34.82 35.16 32.24 35.88 35.64 34.81 28.56 32.73 29.80 31.50 33.25 28.95 30.21 23.04 24.57 26.33 22.91 23.25 29.72 34.26 34.73 36.10 36.01 34.20 33.55 32.94 30.87 30.41 29.64 29.03 29.08 29.85 30.98 31.39 32.30
49.12 49.26 49.59 49.95 49.55 49.54 49.77 49.96 49.76 45.19 42.76 41.70 42.58 44.33 43.55 40.15 35.67 32.39 31.31 33.11 31.43 29.12 33.16 33.84 33.67 35.43 33.93 36.57 33.46 33.94 30.52 29.35 21.69 27.77 23.50 21.63 25.69 31.53 32.10 32.87 32.92 33.18 33.33 31.67 31.46 30.60 30.24 30.52 30.38 30.14 30.14 31.12 32.57 32.55
49.03 49.73 49.88 49.92 49.58 49.45 49.74 49.93 49.56 47.67 46.18 42.95 39.10 35.07 33.51 32.30 27.31 28.05 23.28 26.99 27.81 30.34 33.24 33.82 30.95 34.40 34.32 35.46 33.71 32.45 28.22 25.25 27.23 23.86 22.88 25.13 31.15 31.43 31.66 32.23 31.98 31.73 32.06 31.40 30.93 31.11 31.20 31.07 31.87 31.23 31.71 32.70 32.88 32.11
49.44 49.42 49.52 49.59 49.51 49.52 49.50 49.35 49.12 47.54 42.94 36.62 32.11 25.65 24.69 26.90 27.69 28.00 25.71 26.42 30.30 30.93 32.80 32.75 30.61 32.26 33.23 32.40 32.51 28.84 28.82 26.85 18.17 16.85 19.73 27.42 32.23 31.07 32.53 31.88 30.94 30.45 30.87 30.57 30.20 30.23 30.48 30.59 30.39 31.96 33.35 33.08 32.45 31.75
48.95 49.06 49.10 48.81 49.08 49.38 49.30 49.35 49.09 46.33 40.88 33.19 31.39 24.67 23.14 28.48 28.54 29.04 29.38 29.50 32.63 33.79 34.43 32.54 32.05 32.45 30.81 30.38 30.78 28.31 25.44 19.92 20.43 20.62 25.41 31.70 30.71 29.96 31.09 31.21 30.81 29.63 29.43 29.59 29.67 29.67 30.12 30.35 30.20 31.66 33.26 33.27 32.82 32.56
48.96 48.64 46.77 48.58 48.71 48.83 48.87 48.51 46.86 44.74 40.27 34.51 31.23 28.06 29.49 27.81 29.45 28.76 29.14 28.76 33.38 34.70 33.48 32.47 30.83 28.59 28.31 28.58 26.57 23.07 20.08 18.75 23.01 27.25 32.40 32.96 29.78 30.01 31.14 33.16 32.17 29.81 29.65 29.47 29.52 30.01 30.39 30.25 30.14 32.56 33.29 32.92 32.74 32.84
48.51 44.42 47.61 48.21 48.43 48.56 48.36 45.35 43.35 37.45 32.16 30.58 29.79 33.38 30.89 31.06 31.27 30.13 31.29 32.16 36.66 34.55 31.46 31.68 27.31 26.55 30.30 26.57 22.18 23.60 21.95 25.37 30.29 32.13 34.37 33.04 31.07 31.37 31.32 31.33 30.16 30.04 29.33 29.01 29.29 29.82 30.15 31.32 31.69 32.81 31.71 32.65 33.26 33.53
44.59 46.62 48.46 48.31 47.53 46.42 44.93 44.17 39.18 32.38 29.99 31.97 28.64 31.50 32.47 34.37 33.64 31.19 32.32 34.62 34.36 33.26 31.85 28.70 31.91 28.34 26.72 21.88 21.62 26.19 27.57 31.07 33.69 34.10 33.09 31.81 31.50 31.60 32.42 31.31 30.25 30.26 29.05 28.83 29.41 29.80 30.59 30.59 32.16 32.43 32.95 33.25 33.19 33.44
46.24 46.90 48.18 48.18 46.77 43.49 38.58 38.38 35.89 29.43 31.25 29.05 28.79 30.74 32.70 32.40 34.48 34.22 35.57 36.07 37.14 35.87 35.46 32.98 30.37 29.23 28.38 28.28 27.48 29.08 31.44 33.16 32.89 33.02 33.06 32.58 32.51 31.93 31.72 30.54 30.28 29.34 29.00 29.09 29.13 29.80 29.92 31.36 33.57 33.89 33.69 33.51 32.33 33.08
48.26 48.50 48.28 47.85 47.02 40.74 34.06 32.16 34.28 32.51 29.24 30.62 30.94 29.07 31.85 32.79 33.92 35.07 35.52 36.23 36.16 35.70 33.31 30.86 31.38 33.09 31.53 35.54 37.19 36.55 36.30 35.83 33.25 31.18 30.86 31.68 31.56 31.08 30.89 31.32 30.88 29.95 29.10 28.83 29.79 33.31 30.90 32.31 34.44 34.40 33.70 33.04 32.60 32.23
46.79 46.37 47.73 46.92 43.59 40.11 33.49 31.49 30.78 32.95 31.83 29.24 31.18 32.48 30.96 31.87 31.57 31.97 33.17 36.72 34.70 33.86 32.74 34.95 35.03 36.78 38.37 38.51 36.32 35.32 34.39 35.13 34.00 34.46 31.98 31.52 31.22 31.27 30.11 29.60 29.58 30.19 29.63 29.21 28.94 29.50 33.28 31.36 33.63 34.00 33.19 32.88 33.23 32.83
44.65 47.19 43.54 44.07 32.92 31.40 31.73 32.76 32.52 32.79 33.11 31.83 30.22 31.37 28.80 28.42 29.52 31.01 33.49 32.84 32.21 34.21 35.75 35.91 36.71 37.45 37.26 37.18 37.73 37.44 38.27 36.02 35.06 34.63 37.02 34.22 28.83 28.22 28.38 30.81 30.09 29.41 29.64 30.10 30.17 29.88 29.89 32.13 33.86 33.46 33.00 32.82 33.60 32.44
43.78 39.53 33.74 32.16 30.21 29.77 29.71 34.86 31.24 31.60 29.10 29.56 31.51 29.45 29.94 30.06 30.23 35.22 32.36 32.57 34.21 37.51 38.19 38.18 38.66 39.01 36.92 38.58 38.82 38.04 36.77 35.30 34.85 33.97 34.89 32.74 32.19 32.80 31.44 31.05 31.90 30.34 28.60 28.64 30.85 30.58 31.10 35.10 34.92 33.33 33.21 33.15 32.69 31.46
41.25 34.12 31.50 30.40 30.43 27.47 30.72 29.01 32.96 31.40 30.88 30.71 30.44 28.26 28.36 30.01 33.31 31.09 28.78 28.97 34.41 36.22 36.37 36.97 37.25 36.46 36.92 35.65 33.93 35.12 35.57 35.89 35.26 34.18 34.44 32.63 31.01 30.94 33.04 32.49 31.94 31.95 32.01 31.31 31.62 31.44 31.93 33.67 34.58 33.59 32.99 32.51 32.41 31.55
31.56 29.19 30.79 27.92 30.03 27.27 26.26 27.85 29.00 29.42 26.81 29.37 26.03 24.93 28.25 32.00 29.22 29.20 27.00 27.73 29.57 32.43 34.61 34.41 34.62 35.32 34.41 35.65 36.02 36.46 37.94 36.38 34.91 34.63 34.74 34.69 33.41 30.97 30.47 30.05 30.26 31.41 32.76 31.67 30.74 31.88 32.30 33.30 33.04 32.61 32.46 31.93 30.91 31.19
26.65 28.47 27.89 25.73 25.95 25.91 25.26 24.71 25.34 25.58 26.73 27.02 26.85 27.17 27.38 27.93 24.86 21.61 23.96 26.32 27.01 27.50 28.64 30.78 32.15 32.56 33.77 35.65 35.16 33.95 34.44 36.46 36.58 35.42 34.92 33.96 34.16 33.17 30.96 29.16 28.68 29.52 33.41 33.88 33.11 32.26 32.85 32.59 31.97 31.69 31.20 31.53 32.77 31.74
24.71 25.69 30.39 30.93 29.71 28.12 26.30 26.52 27.06 26.13 25.33 24.05 27.11 26.17 25.55 21.52 19.87 24.17 27.44 28.60 25.93 28.41 32.53 33.74 34.71 34.51 35.26 35.90 35.51 35.33 35.49 36.01 35.46 34.99 33.80 34.72 34.97 35.33 34.68 31.71 31.32 33.40 35.15 34.36 33.86 33.59 32.29 31.52 31.21 31.03 30.67 30.81 30.83 30.11
27.89 28.65 26.77 27.96 27.54 27.96 24.79 25.87 25.45 24.81 25.37 27.21 27.51 23.48 22.99 22.43 21.68 26.21 27.79 28.92 27.57 27.55 27.82 30.35 33.51 33.36 33.06 32.94 33.22 32.49 32.27 33.57 34.18 34.41 34.55 33.88 34.25 35.11 35.33 35.26 35.46 37.60 35.38 34.74 34.07 34.12 32.95 31.82 30.87 30.59 30.40 29.97 29.42 27.42
26.73 28.29 28.41 21.08 23.71 24.88 23.05 25.57 24.95 26.73 28.03 27.28 25.10 24.34 24.84 27.06 25.82 24.57 27.08 29.64 30.65 29.99 27.24 26.95 28.42 31.98 31.45 31.03 31.00 30.97 32.23 32.62 30.68 30.68 30.06 29.04 28.23 28.75 33.70 34.78 35.71 35.60 34.87 35.16 36.80 35.08 33.10 32.22 31.63 31.13 30.70 28.84 26.97 26.70
25.56 28.45 25.91 24.85 20.09 22.07 25.89 26.84 26.78 27.70 27.50 27.52 27.50 26.70 26.33 25.21 25.09 26.31 24.28 24.76 24.90 24.44 24.88 25.62 27.13 30.38 28.99 30.31 30.46 31.71 33.10 33.80 34.16 32.91 30.64 29.74 30.77 30.40 31.27 32.05 31.91 32.26 33.71 33.60 33.26 32.96 35.62 33.50 33.04 31.22 29.57 27.09 26.48 26.13
28.35 27.27 24.52 25.28 24.15 25.73 25.62 26.44 26.93 26.79 26.21 25.98 26.93 26.57 25.41 24.76 25.67 25.79 23.66 27.00 30.61 31.87 31.26 30.48 30.80 31.53 31.23 31.06 30.92 30.50 29.24 31.67 32.66 32.81 32.83 32.28 32.10 31.74 31.31 31.16 31.66 32.15 32.19 30.76 29.61 29.17 29.57 29.00 28.31 26.77 25.66 25.29 25.43 26.34
28.07 25.80 23.71 22.74 24.80 28.48 29.15 27.01 26.19 26.46 26.82 25.91 24.82 25.24 24.77 24.39 23.77 24.75 25.31 26.58 29.65 29.21 31.16 30.66 29.95 29.79 31.26 31.76 31.92 32.10 33.49 30.70 31.04 32.44 33.07 32.05 29.62 30.62 31.72 31.81 32.49 32.16 30.52 29.52 28.90 27.93 27.13 26.11 25.15 24.84 24.78 24.93 24.74 24.64
27.29 25.96 25.09 25.66 25.91 26.32 27.83 25.23 25.36 25.16 24.63 24.34 24.51 25.66 25.33 25.11 24.09 24.70 26.41 25.59 26.05 25.79 26.17 27.09 28.22 28.75 28.24 28.47 28.64 29.78 31.80 29.35 29.91 33.92 34.65 34.65 34.79 34.19 33.09 32.37 32.17 31.22 29.45 27.60 27.45 27.15 26.34 25.81 25.20 25.15 24.91 24.41 24.25 24.18

GFSWCAN_sfc_wetblb_033.txt.gz
Wetbulb
51.98 52.09 52.22 52.51 53.00 54.32 56.45 56.55 55.75 55.41 54.57 53.64 52.06 51.57 51.59 51.56 51.91 44.92 42.18 43.17 37.27 33.48 35.32 39.36 39.05 35.01 33.38 32.03 29.96 31.43 31.01 30.04 28.02 25.18 24.11 24.19 21.82 25.79 22.63 24.28 24.77 23.22 19.63 18.94 20.26 14.47 16.43 32.60 31.03 26.45 29.15 30.04 32.35 32.28
50.67 50.89 51.14 51.48 51.95 52.10 53.03 53.99 56.12 55.66 55.03 54.03 52.46 51.14 50.99 51.09 51.28 46.58 39.33 44.51 43.66 36.21 36.43 41.43 41.94 41.06 39.23 38.12 33.79 31.56 30.98 30.25 31.10 26.88 25.81 23.95 24.40 22.05 24.91 20.88 26.66 23.68 28.38 22.16 24.38 23.98 31.22 31.99 30.59 32.28 32.83 32.38 32.40 32.34
50.04 50.22 50.40 50.65 51.02 51.32 51.95 52.46 53.55 55.47 55.36 54.70 53.46 51.81 50.33 50.61 50.72 47.26 41.50 41.96 39.08 35.82 36.68 36.45 37.82 40.57 42.26 40.94 40.16 33.05 32.00 34.63 32.53 33.80 29.43 27.07 22.97 26.11 22.32 23.40 23.64 28.60 31.65 25.61 28.90 29.01 30.86 31.99 32.85 32.44 34.89 33.92 34.12 33.59
49.93 50.09 50.16 50.27 50.45 50.52 50.82 51.22 51.77 52.40 53.54 55.57 54.56 53.23 51.98 50.76 49.98 46.90 40.50 41.81 39.51 36.45 32.04 36.25 41.44 38.85 40.79 40.24 39.92 39.15 37.52 37.32 35.32 34.80 32.69 29.35 27.75 31.57 24.30 27.27 25.17 30.27 30.25 28.84 27.13 30.34 31.11 31.45 31.42 32.75 34.70 34.32 31.97 31.57
49.66 49.77 49.84 49.89 49.94 50.17 50.27 50.64 50.87 51.31 51.82 52.66 54.47 54.54 53.37 51.96 50.69 45.01 41.98 42.09 42.33 36.72 31.38 33.69 37.13 39.60 39.79 39.24 39.21 39.10 38.21 35.19 32.84 30.50 27.63 26.18 30.25 31.29 29.82 25.69 22.95 30.74 28.85 28.36 28.20 31.80 29.87 28.84 32.06 35.19 33.70 31.21 30.60 30.39
49.22 49.51 49.41 49.58 49.48 49.31 49.29 50.20 50.55 50.59 50.83 51.40 52.45 53.80 54.00 52.36 49.61 43.90 37.77 42.15 44.65 41.21 35.34 27.68 34.99 36.04 37.51 37.71 37.78 37.10 36.78 34.58 33.16 31.85 29.12 30.40 32.86 31.72 18.97 19.02 28.00 32.65 36.26 36.97 32.08 31.36 31.44 32.23 32.76 33.72 30.57 30.80 31.51 31.28
48.63 48.91 48.96 48.94 49.00 48.97 48.88 49.89 50.12 50.53 50.49 51.05 52.45 52.91 53.47 52.21 47.20 42.40 39.20 41.51 47.07 44.36 36.36 29.63 27.83 34.43 36.53 36.11 35.47 34.72 35.61 33.47 33.06 31.40 28.85 29.03 29.59 30.73 17.88 18.66 31.98 33.40 34.62 34.24 32.19 31.29 29.21 32.24 31.43 30.94 31.69 31.92 32.73 31.86
48.64 48.77 48.92 48.98 48.99 48.90 49.10 49.48 49.22 49.78 50.58 50.76 51.69 51.82 52.06 51.84 48.45 44.63 44.19 47.97 46.74 42.46 39.59 28.01 27.77 29.63 34.18 30.93 30.49 33.67 31.55 32.24 32.06 31.16 30.98 29.44 29.89 27.75 20.27 30.05 31.50 33.05 32.66 31.57 32.00 32.11 31.99 31.48 30.12 30.41 31.21 30.86 29.59 29.26
48.76 48.96 49.10 49.23 49.35 49.33 49.30 49.45 49.06 49.36 50.18 50.45 50.78 50.78 48.45 47.44 43.55 43.77 48.54 48.96 45.61 40.62 33.17 32.26 29.18 21.40 32.61 30.39 30.84 31.55 31.25 26.80 30.87 29.22 31.17 29.91 26.24 24.71 29.93 32.16 33.68 33.08 32.01 32.23 32.17 31.64 29.93 28.89 28.74 29.22 28.94 29.02 28.16 28.36
49.05 49.27 49.43 49.50 49.53 49.67 49.62 49.44 49.03 49.51 49.90 49.68 45.90 42.43 37.09 42.72 48.67 47.15 43.07 40.01 39.93 40.29 39.11 33.05 32.18 29.22 30.12 25.31 24.48 28.00 26.95 23.10 27.21 28.96 32.78 30.09 27.89 32.43 32.93 34.79 35.40 34.55 33.91 32.81 30.28 28.57 26.80 26.36 27.63 27.94 28.18 29.35 29.55 29.30
49.16 49.38 49.50 49.58 49.69 49.66 49.67 49.59 49.43 49.09 47.44 41.82 40.10 38.87 44.60 48.90 43.58 40.62 35.89 34.01 34.76 32.48 35.39 36.05 34.21 32.75 32.05 30.60 30.27 30.87 30.40 30.79 24.08 24.46 26.46 25.41 24.44 27.91 34.16 34.81 36.14 35.32 33.42 33.72 34.17 32.25 31.06 29.50 28.53 28.30 28.67 29.72 30.04 29.56
49.15 49.28 49.52 49.91 49.80 49.61 49.60 50.07 49.62 44.14 41.12 41.68 42.25 44.55 44.10 40.40 35.96 32.89 31.75 33.72 32.50 30.41 33.01 33.78 33.41 35.42 34.33 35.87 33.41 33.55 30.91 29.38 22.81 26.26 27.08 22.67 26.60 30.79 33.43 32.67 32.63 32.37 32.47 32.67 32.11 30.25 29.75 30.02 29.61 29.30 28.88 29.17 29.98 30.42
49.11 49.46 49.70 49.82 49.88 49.63 49.53 49.90 49.44 47.03 45.44 43.27 39.52 36.08 34.51 33.50 26.82 27.20 24.45 27.45 28.00 32.63 30.36 33.26 31.60 33.86 34.42 34.21 34.16 32.30 28.84 25.68 27.43 25.48 23.46 25.54 28.74 33.35 32.20 32.16 32.50 31.65 31.73 31.02 29.71 30.18 30.33 30.13 30.50 30.05 29.82 30.37 30.61 32.03
49.03 49.22 49.32 49.50 49.61 49.39 49.35 49.27 49.04 47.24 43.18 37.22 32.51 28.25 27.53 23.62 27.93 26.56 25.25 25.53 29.37 29.09 30.75 31.82 31.13 32.26 34.00 31.98 32.84 30.23 30.27 28.49 20.62 20.68 20.24 26.03 30.19 31.19 32.74 33.32 31.65 29.97 29.84 29.62 29.56 29.64 29.71 29.71 29.57 30.65 30.75 31.05 32.28 31.56
48.76 49.08 49.11 48.62 48.90 48.93 49.00 49.25 48.89 46.26 40.84 33.67 32.00 24.90 23.98 27.45 27.12 27.60 28.53 28.23 29.78 31.69 32.82 31.66 33.14 33.56 31.12 30.28 31.80 30.09 24.41 19.32 20.38 20.45 25.40 30.92 31.94 31.86 31.31 32.41 31.43 28.64 28.62 29.02 28.96 29.18 29.22 29.26 29.23 29.61 30.39 31.08 32.90 32.60
48.63 48.32 46.27 48.33 48.52 48.54 48.60 48.14 46.30 44.58 39.39 33.41 31.68 28.87 27.86 25.18 27.05 25.90 27.02 27.67 30.87 32.22 30.70 31.01 27.56 27.22 26.41 29.05 26.97 21.64 19.63 18.33 22.17 26.58 31.12 33.30 32.37 34.39 34.49 33.01 31.07 29.26 28.66 28.69 28.96 29.30 29.40 29.24 29.12 29.50 30.49 30.87 32.76 32.81
47.89 43.73 47.40 48.12 48.36 48.37 48.14 44.70 42.89 37.89 33.48 30.51 30.02 32.59 29.38 27.89 27.67 26.79 28.96 29.55 33.77 31.82 27.44 31.60 27.15 26.04 29.58 23.25 25.15 26.94 21.98 25.12 29.98 31.95 33.48 35.07 36.34 38.71 37.72 31.81 31.23 29.57 29.17 28.80 28.51 28.94 29.29 30.20 30.03 29.67 28.39 30.40 33.12 33.37
43.48 44.87 47.91 47.95 47.32 46.23 44.84 43.88 39.59 33.99 29.42 31.71 29.30 30.27 31.28 33.00 32.46 28.96 30.83 32.67 32.99 31.52 31.40 30.59 30.52 27.97 20.84 16.55 21.91 26.45 26.99 30.26 31.52 31.86 33.27 36.05 37.78 36.95 34.12 31.65 30.38 30.00 29.96 29.01 29.34 29.18 29.69 29.16 28.58 28.09 28.16 32.85 32.97 32.90
44.63 45.25 47.25 47.84 46.66 43.44 38.58 38.16 38.00 29.29 29.56 30.74 29.71 29.02 31.33 30.56 34.06 33.71 33.80 35.63 36.53 36.59 35.24 32.92 29.81 25.99 27.73 30.52 30.64 33.17 33.66 33.27 32.76 34.52 35.73 37.68 37.64 35.95 32.94 32.39 31.31 29.62 28.67 28.70 28.63 29.93 30.54 30.45 30.04 29.43 30.05 33.47 32.09 32.82
47.82 47.64 47.44 47.45 47.07 40.63 36.85 33.32 35.13 33.38 31.24 31.51 28.58 28.08 29.79 31.99 33.18 34.52 34.91 35.59 35.60 34.88 32.50 30.95 30.27 31.95 30.91 33.56 34.19 35.49 35.23 35.85 35.64 35.19 35.74 35.88 37.09 33.88 31.40 32.12 31.85 31.56 29.37 27.93 29.13 32.39 30.05 29.12 30.76 31.49 31.84 33.32 32.20 31.77
45.98 45.27 46.69 46.39 43.83 41.23 34.33 31.50 29.63 32.41 33.32 28.82 29.98 31.47 30.16 30.24 31.88 32.44 32.43 35.60 33.50 32.51 31.17 33.62 34.44 36.59 38.45 38.78 38.90 38.09 37.23 36.07 35.72 35.97 35.06 34.69 36.07 33.14 32.58 31.38 31.08 30.51 29.71 29.08 29.47 30.65 32.14 29.71 30.47 31.79 31.70 33.26 33.44 32.88
44.18 46.79 43.54 44.30 35.46 33.77 31.93 33.06 32.42 33.56 32.99 31.57 30.02 30.91 29.45 29.82 29.58 30.22 33.32 32.66 31.99 33.41 34.92 35.28 36.33 37.10 36.90 36.63 37.60 38.17 38.27 36.83 35.29 35.29 38.19 36.74 29.35 30.51 30.19 31.35 30.44 29.94 30.42 30.36 30.79 29.90 30.94 30.38 30.49 30.98 30.99 32.65 33.87 32.50
46.01 43.84 34.85 34.55 31.59 29.29 29.63 33.33 30.57 31.75 28.93 30.12 29.27 27.21 28.78 28.24 29.11 33.39 30.11 31.04 33.46 36.94 37.87 37.81 37.90 38.42 37.29 38.18 37.95 37.15 36.46 36.50 35.85 35.56 35.68 36.13 35.52 35.79 34.85 32.14 32.36 31.98 30.07 29.65 31.75 30.86 30.05 33.25 34.20 31.60 33.13 33.27 32.34 31.66
42.06 34.28 31.63 30.07 31.27 27.33 30.65 28.94 32.53 30.82 30.96 30.12 29.83 27.49 28.70 30.07 32.21 30.71 29.19 30.14 34.22 35.06 35.25 36.24 36.69 35.60 36.29 35.53 35.19 36.23 37.21 37.18 36.15 36.82 36.24 35.72 33.81 33.40 33.97 33.31 32.80 33.81 32.97 31.88 31.62 30.57 30.68 32.15 34.56 32.66 32.50 32.18 32.11 31.68
30.86 28.54 30.06 27.64 30.90 27.23 26.60 27.92 29.31 28.99 26.84 29.30 27.48 25.38 28.02 31.49 28.74 28.66 27.19 28.05 30.45 32.99 33.91 32.76 33.43 34.35 33.78 34.77 35.35 35.87 36.73 35.20 34.82 33.76 33.04 34.74 34.05 30.91 30.73 31.66 32.35 32.41 31.91 30.48 29.77 30.76 30.57 32.06 32.47 32.20 32.52 32.06 31.48 31.07
28.36 29.98 27.93 27.32 27.19 26.47 26.01 25.04 26.43 27.33 27.43 26.91 27.56 28.45 29.96 28.95 26.12 23.54 24.38 26.06 26.12 25.59 24.75 25.63 27.84 27.15 29.35 32.24 32.58 32.00 33.50 36.52 36.91 35.82 36.20 34.69 34.75 36.07 33.75 31.02 29.97 29.23 32.15 32.73 31.81 31.28 31.58 31.89 31.94 31.72 31.71 32.29 33.52 31.62
25.51 26.06 30.49 30.40 28.70 27.88 26.58 27.02 27.48 26.62 25.76 25.29 26.77 26.45 25.10 20.40 19.10 24.27 25.78 27.30 25.01 24.66 27.97 27.36 29.12 29.75 32.89 35.16 35.83 37.00 38.06 37.83 37.91 37.50 37.76 37.43 37.54 37.14 36.39 33.15 31.86 32.47 33.60 33.17 33.25 33.03 32.33 31.87 31.49 31.51 31.37 31.31 31.38 31.07
29.07 29.20 26.54 27.77 27.68 28.63 25.30 26.19 26.01 25.83 26.35 26.64 27.54 24.19 20.45 21.31 22.22 25.89 27.19 27.44 24.30 26.52 27.53 28.02 31.40 32.00 31.83 31.85 32.90 33.35 33.08 33.97 34.21 34.10 33.73 33.10 33.70 34.22 35.17 34.53 34.85 36.79 34.62 35.00 34.39 34.09 33.28 32.73 32.08 31.52 31.14 30.55 30.25 30.58
26.77 28.68 29.22 24.27 26.38 27.29 26.53 26.72 25.90 26.98 27.60 27.30 25.41 23.86 24.44 26.79 25.96 23.62 24.37 24.32 25.43 25.37 24.02 24.99 26.85 31.01 31.54 31.92 31.74 31.53 31.57 31.20 29.26 26.15 26.45 28.14 29.83 30.91 33.97 35.39 36.29 35.30 34.99 35.25 36.89 34.89 33.39 33.00 32.21 31.68 31.43 30.87 30.38 29.48
26.49 28.73 26.11 25.17 22.60 22.93 25.72 26.96 26.60 26.98 26.91 28.09 28.11 26.70 25.70 24.07 21.62 22.20 21.60 23.57 23.95 24.39 24.75 25.34 25.49 26.97 25.57 29.97 29.98 29.68 32.45 33.31 33.81 32.74 30.45 29.91 30.98 31.82 32.63 32.67 33.99 34.06 34.66 34.62 34.19 34.20 36.68 34.30 33.97 31.50 29.63 28.68 28.03 26.21
28.12 26.66 24.15 24.22 24.97 24.52 25.36 26.01 26.92 26.39 25.80 25.59 26.15 26.09 25.63 24.15 25.00 24.45 21.58 21.66 26.23 31.63 30.93 30.08 30.55 31.38 31.06 31.01 30.81 30.52 29.74 31.55 32.27 32.93 33.02 32.19 31.08 30.55 31.59 32.13 32.11 32.42 33.33 33.26 32.82 32.82 33.23 31.28 30.79 29.47 28.90 28.19 26.82 27.13
27.93 25.15 23.74 23.08 24.35 27.48 27.01 26.48 25.87 25.95 26.08 25.23 24.39 24.81 24.44 24.32 23.67 24.11 24.19 24.14 29.35 29.16 31.27 30.56 29.78 29.61 31.05 31.74 31.71 32.11 33.07 30.74 31.02 32.14 32.42 31.69 31.66 31.75 30.73 30.75 30.90 31.96 31.32 30.95 30.84 30.65 30.77 29.28 28.39 28.16 26.98 25.67 25.12 24.83
26.47 25.69 24.80 25.17 24.46 25.00 27.57 24.44 24.73 24.29 24.33 24.51 24.62 25.43 25.09 25.32 24.60 24.36 25.67 24.91 25.94 26.67 27.47 27.93 28.91 29.73 28.69 28.21 27.95 28.53 29.76 28.20 30.77 35.03 35.50 35.07 34.34 32.87 31.24 30.91 31.03 31.14 30.19 29.42 28.61 28.78 27.69 26.72 25.87 25.57 25.32 24.89 24.55 24.30

GFSWCAN_sfc_wetblb_036.txt.gz
Wetbulb
51.96 51.81 51.78 51.92 52.19 52.74 54.18 55.69 54.99 54.75 54.67 54.19 52.76 51.84 51.65 51.58 51.30 43.91 41.42 42.44 37.70 33.22 35.16 37.83 37.68 33.48 32.22 31.33 29.74 30.53 30.55 29.27 27.43 23.95 23.18 23.57 21.82 26.01 22.46 24.19 24.39 22.90 19.86 18.60 19.19 14.70 16.50 32.14 29.80 26.27 29.69 28.83 30.79 30.77
50.53 50.73 50.97 51.18 51.58 51.93 52.34 52.83 53.96 55.23 54.49 54.21 53.23 51.85 51.23 51.27 50.74 45.08 38.76 43.68 42.53 36.73 38.80 39.73 40.75 39.80 37.88 37.41 33.19 30.74 30.57 29.49 30.69 26.02 24.54 23.91 24.77 21.87 24.21 20.74 24.55 21.53 27.26 22.29 23.42 23.20 31.27 33.87 31.73 31.97 31.84 30.89 31.48 31.82
49.71 49.84 50.05 50.29 50.64 51.00 51.23 51.55 52.03 52.83 53.95 54.68 53.94 52.44 51.05 50.65 50.17 46.13 40.37 40.71 39.23 36.60 37.73 36.63 37.00 39.66 41.60 40.05 39.13 33.03 30.77 33.55 31.61 31.88 27.95 25.79 22.38 25.81 21.67 22.54 23.40 26.35 30.00 25.77 25.21 28.35 32.33 34.01 33.91 32.48 33.18 33.03 33.68 33.16
49.52 49.44 49.47 49.57 49.78 50.06 50.38 50.70 51.01 51.43 51.99 52.62 54.43 53.96 52.50 50.90 49.96 46.53 40.37 40.62 38.76 35.65 31.91 35.89 40.89 37.75 39.47 39.15 38.55 38.09 36.20 35.54 34.10 32.79 29.11 23.15 22.41 29.13 23.82 26.34 25.04 28.56 28.67 26.60 25.63 31.18 32.53 32.85 31.55 31.94 33.17 34.48 33.32 31.26
49.42 49.30 49.27 49.25 49.21 49.18 49.59 50.00 50.39 50.48 50.69 51.14 51.79 53.06 53.85 51.98 50.53 44.27 40.84 40.70 40.84 37.52 31.62 32.76 36.98 38.06 38.40 38.19 38.13 38.32 36.93 34.09 31.50 29.61 26.18 24.97 28.22 27.01 25.76 25.12 21.85 28.48 27.69 25.23 29.76 35.75 31.93 29.72 31.04 33.14 33.54 33.12 31.22 30.03
49.11 49.10 49.13 49.06 49.04 48.96 48.83 48.55 49.40 50.22 50.24 50.67 51.29 51.96 53.15 52.47 49.30 42.06 37.09 40.80 43.24 40.40 34.55 29.17 35.11 35.20 37.12 37.27 37.04 36.19 35.68 33.39 32.03 30.25 28.06 28.82 30.97 28.78 17.04 19.36 27.59 31.25 34.51 37.22 34.99 31.10 31.20 30.44 31.75 33.10 33.03 30.81 31.19 30.42
48.69 48.55 48.78 48.62 48.70 48.58 48.58 48.63 49.04 49.50 50.30 50.31 51.17 51.89 51.73 52.34 45.66 40.99 38.22 41.05 45.85 41.13 34.07 27.16 26.75 33.59 34.99 34.98 34.12 33.56 34.28 32.32 31.96 30.19 27.73 27.49 28.82 30.86 16.49 16.00 32.21 31.00 33.61 34.39 35.30 30.61 28.39 30.66 30.86 32.18 31.11 31.65 33.28 31.17
48.53 48.54 48.69 48.63 48.65 48.72 48.65 48.71 49.35 48.91 49.62 50.53 50.52 50.80 50.65 51.04 48.78 45.04 43.73 47.45 45.68 40.36 37.02 28.17 27.15 29.38 33.27 30.14 29.39 32.12 30.47 31.02 30.81 29.92 29.79 28.84 28.94 26.47 20.46 26.77 33.11 35.14 33.55 31.88 32.43 31.91 33.14 30.73 30.16 29.55 30.66 30.36 29.27 28.68
48.26 48.30 48.52 48.85 48.89 49.05 49.06 49.00 49.19 48.67 49.45 49.79 50.08 50.23 48.44 46.58 42.95 41.78 48.42 48.70 45.39 40.55 27.33 31.53 28.57 23.25 31.54 29.02 29.47 30.43 29.85 26.85 29.62 26.84 29.17 28.80 28.05 24.53 27.94 30.60 33.62 34.81 31.93 32.75 32.10 31.44 29.58 29.61 28.88 28.53 28.53 28.43 27.94 27.78
48.69 48.90 49.08 49.10 49.12 49.14 49.33 49.40 48.96 48.50 48.98 48.88 43.54 39.66 37.65 43.54 48.01 45.94 41.59 39.99 40.05 40.48 39.02 33.11 31.08 23.64 29.73 24.62 25.83 25.86 28.94 25.61 26.81 29.50 31.20 30.03 28.70 33.25 33.95 33.81 34.99 35.50 33.66 32.94 29.69 28.18 26.51 25.56 26.97 27.20 27.62 28.63 28.84 28.70
48.77 49.04 49.23 49.34 49.37 49.51 49.52 49.49 49.18 48.50 46.33 40.84 38.21 38.10 44.78 48.50 43.35 40.33 36.17 34.50 35.18 32.42 35.42 34.62 34.61 29.95 31.72 31.05 30.79 32.49 29.47 26.96 24.99 24.48 27.94 26.74 24.62 31.37 32.65 34.22 37.09 36.00 34.32 34.06 34.77 33.66 31.37 29.57 28.32 27.73 27.97 28.91 29.33 29.13
48.89 49.14 49.29 49.64 49.55 49.60 49.69 49.95 49.18 43.89 40.75 40.85 39.94 44.17 44.14 38.31 36.13 33.34 30.89 34.63 32.61 29.93 33.89 34.06 33.65 32.63 33.53 34.79 32.28 33.13 30.09 27.91 20.99 25.87 27.05 22.88 27.56 30.67 31.91 32.97 32.74 32.17 31.99 31.99 32.40 31.70 30.42 30.25 29.54 28.93 28.48 28.54 28.99 29.84
48.75 49.21 49.52 49.56 49.79 49.63 49.94 49.98 48.98 46.98 45.29 41.45 37.38 35.82 34.78 33.05 27.04 26.46 25.20 28.84 29.14 32.36 31.82 32.60 29.21 30.58 33.35 32.62 33.12 32.59 29.10 25.20 27.77 24.84 22.51 24.36 28.44 32.72 33.38 33.92 33.57 33.15 32.29 32.42 31.59 31.04 30.80 30.08 30.13 29.70 28.96 29.42 29.64 29.56
48.57 49.25 49.43 49.34 49.40 49.41 49.39 49.44 48.80 47.13 42.96 34.84 32.70 27.13 28.07 25.76 28.20 27.94 25.93 26.24 29.97 29.47 29.20 29.98 28.83 29.83 33.63 31.99 32.40 29.71 31.62 28.09 20.46 20.30 19.45 24.98 28.84 30.55 36.39 34.85 33.34 33.68 32.67 32.33 31.11 30.39 29.91 29.17 28.86 29.78 29.96 30.02 29.71 29.32
48.57 48.56 48.62 48.34 48.77 48.98 49.05 49.01 48.59 46.06 40.07 33.90 32.38 26.04 27.17 28.35 26.35 27.50 28.62 27.90 28.93 30.89 31.74 32.16 32.90 33.37 30.46 29.89 30.43 28.99 25.90 16.89 19.92 19.82 25.05 30.00 31.76 35.47 37.10 37.67 35.94 35.12 32.85 30.43 30.16 29.44 29.24 28.91 28.64 29.11 29.51 29.71 29.97 30.61
47.82 47.74 45.75 48.19 48.58 48.69 48.79 48.10 45.67 44.16 39.67 34.66 32.77 29.51 28.15 24.98 24.73 25.32 26.85 27.38 29.99 30.72 29.47 29.48 27.71 28.22 27.59 26.16 26.39 25.31 21.38 17.24 21.72 24.36 28.53 32.84 33.25 35.30 35.64 37.31 38.67 33.55 30.20 29.65 29.98 29.57 29.12 28.48 28.55 28.92 29.44 29.51 29.65 30.46
47.31 43.00 47.31 48.21 48.48 48.54 48.06 43.30 42.21 37.52 34.57 30.33 29.42 33.57 28.40 26.89 26.29 26.29 28.12 28.67 31.69 30.89 24.20 27.75 25.66 23.39 24.09 26.29 24.57 23.96 21.51 24.82 29.56 29.11 31.30 34.22 33.79 34.99 36.32 35.60 35.60 34.65 31.04 28.83 28.48 29.22 29.39 29.51 29.34 28.65 27.46 28.90 29.59 30.74
41.54 43.30 47.64 48.11 47.35 45.87 43.04 42.92 39.09 34.69 32.24 32.48 29.15 28.46 30.29 31.30 31.56 27.11 29.04 30.52 31.74 29.92 31.52 29.85 30.87 27.72 25.23 20.20 21.48 29.55 28.83 31.69 32.88 32.35 32.55 33.42 32.67 34.30 36.80 35.64 34.98 36.70 31.51 29.07 28.62 29.05 29.28 28.93 28.23 28.14 27.65 28.24 29.08 30.54
43.43 43.79 46.78 47.48 45.58 42.46 37.62 37.80 38.81 30.93 31.23 29.67 29.38 29.02 29.98 29.85 32.12 34.44 32.80 33.47 35.34 34.94 34.58 32.11 29.18 25.07 27.31 30.75 31.16 32.76 33.80 34.29 33.85 34.87 34.75 32.16 32.81 33.83 34.79 34.57 33.34 32.73 29.67 28.42 27.80 29.30 30.45 30.66 30.49 29.50 29.02 28.62 27.93 29.16
46.72 46.70 46.75 47.02 46.15 39.71 34.80 33.35 35.80 33.49 31.29 30.60 29.46 27.12 28.87 29.93 33.13 32.21 33.39 33.34 33.78 33.92 31.77 30.58 30.16 31.66 32.45 34.34 35.13 34.86 35.47 35.18 33.30 32.53 33.38 33.48 34.54 33.80 33.68 33.01 31.63 32.49 30.59 28.40 28.85 32.00 29.33 29.26 29.92 30.17 29.62 29.88 28.97 29.44
44.93 44.29 46.14 45.22 41.95 40.04 34.13 31.98 30.77 32.55 32.23 28.58 29.04 29.61 28.19 28.27 28.74 29.65 30.82 34.69 32.58 32.03 30.85 32.98 33.91 36.16 38.13 38.46 38.70 38.01 36.95 36.24 33.28 33.83 33.85 33.81 36.42 32.94 32.79 32.06 30.95 31.00 29.42 28.20 28.31 30.02 32.46 30.36 31.21 30.67 30.57 30.47 30.71 32.46
43.31 46.31 42.56 43.17 35.02 35.55 32.59 34.43 33.20 33.41 32.83 32.16 30.32 28.83 26.87 26.64 27.54 29.00 32.96 31.93 31.34 32.68 34.21 34.65 35.70 36.51 36.45 36.29 37.18 37.68 37.59 37.05 36.48 35.70 38.41 37.79 34.74 30.65 30.09 31.70 29.45 28.16 29.29 30.16 30.19 30.22 31.92 31.78 30.54 30.46 30.26 29.93 32.80 31.58
45.62 44.14 38.06 35.29 34.57 31.47 29.10 33.18 30.31 31.53 29.13 29.86 28.75 26.74 26.70 26.94 28.65 32.28 28.36 29.60 31.65 35.37 36.59 36.64 36.92 37.88 36.94 37.81 37.74 37.36 35.13 34.87 35.19 35.50 35.59 35.21 35.52 35.98 36.39 33.36 32.45 31.72 29.47 30.29 31.92 31.79 32.10 33.21 33.66 30.81 30.74 31.20 30.23 31.48
43.42 34.90 31.81 31.58 31.84 28.94 30.38 28.34 32.34 30.84 30.79 29.67 28.50 23.74 27.04 27.66 29.73 29.55 27.68 27.30 33.41 32.72 34.01 35.60 36.21 35.42 35.93 34.44 33.79 35.12 35.99 35.11 34.84 35.37 35.74 34.79 35.54 35.31 35.32 35.52 34.58 33.27 34.40 32.68 31.35 31.39 31.25 31.96 34.16 32.43 30.61 30.73 30.39 31.44
32.25 29.80 30.66 28.22 31.30 26.82 25.61 26.84 28.95 28.45 26.91 28.79 27.43 25.88 27.71 31.47 28.40 27.87 26.27 27.84 29.33 32.27 34.31 31.30 31.53 31.85 32.13 33.47 33.69 33.08 34.91 34.61 34.46 33.95 34.98 33.66 34.83 34.56 32.45 32.16 32.64 34.12 33.75 31.63 30.42 30.49 30.45 31.56 32.65 31.37 30.36 30.36 29.87 31.24
28.09 29.88 27.38 26.19 25.80 24.94 24.61 23.80 26.00 26.67 28.02 27.87 28.81 29.46 30.52 29.13 27.12 23.52 24.88 27.30 27.90 27.28 24.89 24.85 24.78 25.33 27.01 29.26 29.67 30.67 32.52 33.96 33.82 33.33 34.29 34.36 34.34 34.39 33.80 31.92 30.60 31.44 33.23 33.54 32.31 31.21 30.44 31.79 31.73 30.82 30.15 31.20 33.80 31.51
27.68 27.07 30.32 32.27 29.29 28.49 26.98 27.30 28.86 28.19 27.23 26.49 27.19 27.05 26.24 23.37 20.61 24.53 26.19 26.46 27.62 24.43 27.34 25.60 27.33 27.62 27.41 29.17 31.79 33.67 35.05 35.49 36.77 38.06 39.04 38.23 38.13 37.92 37.67 36.52 34.56 35.24 34.16 33.97 33.65 32.47 31.35 30.92 30.76 30.61 30.22 30.67 32.08 32.25
30.29 29.40 25.89 27.80 27.06 28.21 25.04 26.37 26.38 26.65 27.95 28.06 27.22 24.48 21.98 21.85 22.60 25.89 26.54 27.05 24.56 30.09 26.55 27.11 29.07 29.34 29.06 29.51 30.04 30.60 32.06 33.08 33.46 33.96 33.66 33.39 33.40 34.03 35.17 36.53 36.88 37.59 34.80 34.43 33.52 33.28 32.58 32.21 30.86 30.37 31.35 31.07 30.69 31.55
28.21 28.88 28.43 23.35 25.64 26.17 24.58 26.42 27.03 28.39 28.34 28.16 26.32 24.85 25.09 26.75 25.91 23.54 24.99 24.35 23.18 23.48 22.81 23.31 23.89 28.20 29.40 30.01 30.17 30.42 30.76 30.58 29.47 27.06 28.82 29.54 30.25 31.07 33.51 35.83 35.38 33.89 33.46 34.29 36.48 34.58 32.91 32.74 32.93 32.67 32.23 31.48 31.05 30.44
24.78 29.58 26.59 27.25 25.84 25.46 26.46 28.12 27.57 28.05 28.09 28.02 27.30 26.36 26.47 24.87 22.03 21.55 20.61 22.63 23.16 22.17 23.03 23.46 22.90 26.08 25.42 29.45 30.18 29.83 32.29 32.71 33.07 32.33 29.93 29.93 31.01 32.21 33.57 33.75 33.00 33.61 34.01 34.36 33.39 33.82 37.32 35.25 35.02 32.11 29.97 29.13 28.76 28.20
28.11 27.18 25.68 25.65 24.62 25.79 25.60 26.41 26.92 27.09 26.45 26.08 26.54 26.43 25.86 24.29 24.83 23.50 20.95 19.25 19.77 27.57 30.49 29.88 30.39 31.07 30.69 30.59 30.28 30.06 29.72 31.53 32.19 32.79 33.02 32.32 32.34 32.58 32.76 32.74 33.53 33.83 33.43 32.33 32.67 33.62 33.64 31.70 30.24 29.33 28.92 28.57 28.48 28.55
26.86 25.78 24.93 23.24 25.00 27.33 26.22 26.45 26.33 25.93 25.50 24.84 24.10 24.77 24.47 24.21 23.79 24.07 24.55 23.40 27.38 29.18 31.29 30.34 29.65 29.28 30.73 31.62 31.41 31.84 32.85 30.86 30.67 31.75 31.83 31.91 32.23 32.62 32.86 32.76 32.12 32.36 32.12 32.46 32.96 33.49 31.75 30.75 29.82 29.35 28.81 28.38 27.89 26.95
27.16 26.13 25.06 25.25 25.85 25.62 27.07 24.24 24.32 23.98 24.22 23.77 23.99 24.77 24.32 24.83 24.32 24.00 24.81 23.96 25.51 26.79 27.65 28.00 29.09 29.82 29.29 28.87 27.05 27.44 29.25 27.94 31.87 35.50 36.15 35.73 34.00 32.52 30.67 30.48 30.57 31.54 31.45 30.84 30.75 30.81 29.84 28.82 28.00 27.40 27.05 26.82 26.09 24.99

GFSWCAN_sfc_wetblb_042.txt.gz
Wetbulb
53.67 53.44 53.18 52.76 52.44 52.74 53.47 54.33 54.48 54.11 53.81 53.31 53.82 53.18 52.60 52.16 50.69 49.82 47.48 48.46 47.68 47.91 44.74 42.45 42.27 40.95 39.99 41.99 42.20 38.57 39.01 37.77 37.86 36.31 36.86 37.06 34.69 36.25 33.79 35.80 33.16 33.43 32.15 30.60 31.25 27.49 26.56 39.56 36.99 34.36 41.88 41.81 40.41 40.60
52.87 52.66 52.22 52.20 51.96 51.92 51.97 52.16 52.50 53.26 54.09 54.18 53.80 53.14 52.56 51.89 50.65 47.32 47.70 47.88 46.86 48.71 45.82 43.55 44.73 44.79 43.27 43.49 43.30 39.92 40.60 39.68 42.28 40.06 37.55 38.20 35.13 35.32 36.46 33.26 35.70 31.78 37.33 36.68 35.14 35.34 40.77 40.56 41.58 43.86 42.32 40.67 41.61 41.12
52.00 51.67 51.50 51.37 51.29 51.18 51.04 51.29 51.33 51.79 52.12 52.49 53.72 53.48 52.31 51.68 50.23 48.92 47.53 46.85 48.37 47.21 45.83 45.98 43.91 44.69 46.70 45.75 44.59 42.29 41.33 42.34 40.38 41.89 41.35 40.21 35.80 39.04 34.65 35.43 36.67 36.28 38.43 34.42 35.40 39.65 40.25 42.26 43.41 43.26 43.14 42.02 42.26 42.32
51.26 51.05 50.80 50.61 50.29 50.12 50.12 50.31 50.38 50.18 50.43 50.86 51.51 52.76 52.68 51.32 49.77 49.26 47.80 46.87 46.24 44.18 41.87 41.94 45.41 43.05 44.81 45.11 44.85 43.60 42.18 41.45 41.50 42.29 40.56 39.76 36.79 39.21 37.03 37.07 35.71 37.49 36.19 37.83 38.10 40.70 41.12 42.04 43.89 43.68 43.14 42.92 40.67 41.03
50.73 50.67 50.41 50.31 49.99 49.64 49.30 49.58 49.82 49.60 49.67 50.08 50.58 51.11 51.71 51.25 48.27 48.58 48.44 46.81 46.43 44.20 40.96 41.78 42.45 42.15 43.28 43.58 43.27 42.75 42.54 41.96 41.44 39.26 38.32 36.98 39.61 37.36 38.24 34.95 34.39 39.05 37.83 36.14 36.01 42.17 41.26 40.98 42.88 43.40 40.70 40.65 41.55 40.42
50.42 50.41 50.22 50.03 49.69 49.52 48.98 48.55 48.41 49.07 49.34 49.45 49.91 50.46 50.83 51.79 48.44 48.81 43.82 47.55 48.66 47.33 43.48 39.63 41.89 39.27 41.43 42.09 41.35 40.92 41.92 41.78 42.48 40.34 39.73 39.84 37.74 38.73 35.34 33.57 40.32 41.56 41.80 42.42 40.39 42.22 41.43 41.71 42.10 41.98 39.91 40.93 41.28 40.69
50.20 50.08 49.90 49.71 49.47 49.34 48.93 48.57 48.74 48.48 48.63 49.37 49.91 50.16 50.06 51.31 49.97 45.05 42.84 46.31 47.42 47.68 42.45 38.65 38.34 39.00 39.64 40.11 40.97 41.50 41.10 41.57 41.32 40.49 37.82 38.51 38.05 38.28 35.43 32.39 39.94 41.53 41.99 42.06 43.05 41.80 39.07 40.85 39.74 42.50 41.04 41.16 40.64 39.92
49.85 49.63 49.48 49.37 49.24 48.96 49.02 48.72 49.00 48.81 48.76 50.00 49.37 49.34 50.28 50.68 49.24 46.68 48.16 47.93 47.68 44.14 41.84 34.15 35.47 36.81 39.04 38.59 38.32 39.70 39.71 40.39 39.68 38.94 37.56 36.51 36.97 37.21 30.68 37.93 39.84 39.95 40.31 40.58 41.03 41.50 40.49 40.90 40.74 40.32 40.34 39.56 37.75 37.43
49.47 49.20 49.16 49.14 49.18 49.17 49.17 49.05 49.43 48.72 49.33 49.31 49.09 49.22 49.25 47.33 44.50 45.54 48.16 48.14 48.63 44.44 37.29 34.86 32.34 33.89 39.24 37.07 38.18 38.72 38.97 36.21 37.65 35.78 35.05 35.82 33.15 28.80 35.55 37.17 37.77 39.23 38.18 38.09 38.99 39.22 39.74 38.72 38.83 38.79 38.25 37.51 36.64 36.79
49.04 48.95 48.87 49.04 49.26 49.35 49.67 49.48 49.26 48.93 49.16 47.80 46.88 43.02 38.93 44.99 48.42 47.73 44.55 41.68 41.65 42.28 41.44 34.27 37.32 34.08 37.80 36.40 35.38 36.71 34.49 35.10 30.47 33.50 35.20 31.67 32.32 37.53 38.48 39.57 40.34 40.66 40.69 40.25 38.33 38.19 37.07 36.81 37.76 38.07 37.27 37.67 37.29 37.20
48.64 48.38 48.37 48.68 49.14 49.34 49.57 49.81 49.62 48.50 46.34 45.47 41.33 39.72 45.62 48.63 44.93 42.11 36.45 35.86 36.08 33.08 37.36 36.89 35.59 33.68 37.49 35.03 35.86 37.55 34.06 32.09 27.27 31.94 29.68 29.57 30.11 35.40 39.59 40.80 41.83 41.75 41.34 40.78 40.64 39.57 38.80 37.93 37.05 37.36 36.89 36.27 36.03 36.02
48.71 48.81 48.94 49.16 49.29 49.58 49.61 49.98 49.16 46.30 45.12 44.01 43.99 46.02 46.18 41.46 37.86 34.05 32.26 34.49 32.22 30.79 35.57 34.70 34.73 35.58 36.06 37.60 35.57 35.42 30.96 29.60 24.65 33.92 28.46 27.00 34.22 38.51 39.22 39.80 41.00 41.77 42.06 41.20 42.87 40.18 39.07 38.11 37.46 37.04 36.13 35.60 34.94 35.87
48.60 48.97 49.10 49.27 49.64 49.76 49.90 50.15 48.21 46.74 46.32 45.60 41.50 37.15 36.46 35.09 28.43 27.15 25.16 29.62 30.72 34.04 36.40 35.74 33.35 36.84 36.97 37.32 35.40 33.67 29.10 27.10 33.61 27.76 27.08 31.82 37.47 38.41 39.16 39.68 40.34 42.36 42.38 42.29 42.26 41.85 39.37 38.78 37.54 36.37 35.81 36.45 37.22 35.98
48.80 49.31 49.54 49.71 49.93 50.08 50.01 49.34 48.15 46.67 44.86 38.12 32.05 27.39 29.27 27.30 29.13 30.43 30.81 32.45 35.74 36.47 36.41 36.11 33.93 35.81 36.38 33.97 34.42 28.61 31.24 31.58 26.34 23.96 26.41 35.67 38.34 39.40 40.15 40.69 39.93 40.30 40.82 40.99 41.52 40.81 38.51 36.87 37.13 36.77 36.67 37.26 36.37 34.82
48.69 49.13 49.26 49.27 49.71 49.72 49.42 49.05 47.95 47.15 41.88 33.86 33.09 27.79 29.79 33.12 32.87 33.28 33.63 33.91 35.32 37.72 36.69 35.44 34.06 34.92 32.38 30.45 31.44 29.54 27.29 25.54 27.44 28.00 34.36 38.33 39.66 39.85 39.44 40.50 40.62 40.74 40.46 40.07 40.85 39.75 38.63 36.63 36.10 35.94 36.44 36.61 36.13 35.57
47.95 47.93 46.87 48.52 48.93 48.89 48.46 48.46 46.29 44.98 40.70 35.96 33.30 30.70 30.90 31.00 31.86 31.89 32.78 33.41 36.45 36.76 37.28 36.93 32.57 29.36 28.44 30.00 27.70 26.50 24.90 24.82 30.33 34.85 37.90 39.52 39.06 39.30 39.21 39.72 40.33 40.53 40.26 39.91 39.88 38.97 38.22 36.62 35.33 35.91 36.40 35.61 35.44 35.09
47.10 44.16 47.91 48.38 48.70 48.55 47.47 45.37 42.67 37.50 34.98 32.80 32.37 35.85 34.10 34.24 33.19 33.51 34.59 35.30 38.01 36.87 33.59 32.79 28.89 27.97 32.00 27.04 25.64 30.45 28.59 33.06 36.81 38.35 40.03 39.86 38.56 38.61 39.74 39.70 39.73 39.63 39.79 39.84 39.73 39.09 38.45 37.57 36.25 35.41 34.39 35.11 35.49 35.22
44.31 46.68 48.38 48.43 47.86 46.48 44.25 43.02 38.90 34.43 31.90 33.74 31.74 33.73 33.66 35.69 34.43 34.36 34.67 35.37 36.09 35.69 34.95 32.23 35.41 29.91 27.65 26.02 28.46 33.88 36.21 37.89 38.81 39.14 39.53 40.00 40.07 39.76 38.96 38.99 39.65 39.93 39.78 39.61 39.98 39.16 37.45 35.75 34.71 34.91 35.60 35.93 35.03 34.89
45.17 46.28 48.06 48.00 45.90 41.86 37.91 37.30 38.64 31.70 32.48 34.96 36.35 36.24 35.97 35.87 37.39 38.89 37.74 36.65 38.08 39.00 37.04 34.04 31.14 30.18 31.09 34.81 34.99 36.58 37.96 38.47 37.90 39.19 40.18 40.53 40.62 39.24 39.12 39.38 39.00 39.31 39.40 39.45 39.77 38.65 37.59 36.88 36.69 36.56 36.12 35.77 35.11 35.53
46.59 47.14 47.11 46.83 45.22 38.95 33.71 33.71 37.33 34.85 32.31 33.93 35.36 33.72 34.58 35.25 36.89 36.55 37.44 36.67 35.17 34.03 32.31 31.40 31.84 34.83 35.89 37.77 38.99 38.80 39.64 40.57 39.48 37.62 37.59 39.60 41.17 40.84 39.67 39.14 39.04 39.94 39.87 39.77 39.38 37.43 36.61 36.63 36.42 35.77 35.48 36.00 35.24 35.16
45.07 44.94 45.62 44.57 41.99 39.39 36.61 33.35 32.98 34.64 34.37 31.94 33.96 33.58 33.45 34.01 33.65 33.77 33.76 36.12 32.43 32.40 31.49 35.41 35.80 38.33 40.20 40.46 41.28 41.12 40.31 40.24 38.91 38.86 37.90 37.65 40.07 40.47 40.14 40.13 40.35 39.38 38.64 38.65 38.21 38.67 37.66 37.19 38.07 36.52 35.75 35.51 36.54 36.96
43.19 44.91 41.88 42.28 34.07 35.70 33.17 36.16 34.89 35.27 33.69 33.66 32.56 33.36 32.08 30.81 31.34 32.50 35.80 32.31 31.64 34.25 36.39 36.54 37.65 38.67 38.82 38.93 39.89 40.69 40.97 40.84 40.62 40.36 40.25 40.02 38.49 38.85 39.26 39.88 39.66 38.87 39.19 38.70 38.71 38.35 38.98 39.22 38.18 36.81 36.20 36.39 36.51 36.35
43.95 42.56 37.83 35.34 33.17 31.88 31.88 37.44 31.82 32.26 29.39 29.75 30.92 29.48 29.91 30.71 33.20 35.54 31.77 33.94 35.80 38.87 38.90 38.63 39.07 40.05 39.43 40.30 40.62 40.57 40.66 39.60 38.82 39.22 39.42 39.69 40.14 39.68 39.73 39.61 39.95 39.00 38.49 39.48 40.04 38.55 37.48 37.59 37.55 37.07 36.63 36.20 35.56 34.96
43.36 36.22 32.80 32.42 31.84 30.39 31.67 30.98 33.62 32.26 31.71 30.34 29.44 28.23 29.78 31.58 32.95 30.62 29.09 33.49 37.00 39.03 37.73 38.29 39.25 38.47 39.19 38.73 38.04 38.33 39.42 39.93 38.67 38.68 39.24 38.05 37.24 37.80 38.53 38.53 38.91 39.23 39.57 39.85 39.08 36.80 35.72 35.76 36.95 35.46 35.15 34.86 34.70 34.38
32.40 30.90 30.75 29.08 32.83 29.49 26.62 26.94 28.35 28.63 27.24 29.57 28.53 28.63 29.56 31.02 28.27 28.05 29.12 33.32 36.30 36.78 37.56 38.67 38.87 38.17 36.73 37.77 38.51 38.19 38.14 37.16 36.40 35.79 37.82 38.09 37.36 37.47 37.16 37.50 37.07 37.78 38.37 36.82 36.91 36.70 36.26 36.56 35.89 34.96 35.20 34.59 34.67 33.88
28.70 31.70 29.45 29.60 29.72 27.85 27.44 26.07 26.89 27.25 28.39 27.99 29.03 31.61 30.79 29.85 27.80 27.28 30.48 34.73 36.12 37.10 37.12 36.43 35.45 35.62 35.03 35.46 34.88 35.12 36.13 37.01 36.07 34.49 36.18 37.63 37.29 36.98 36.18 35.04 34.56 36.03 37.87 36.44 36.05 35.35 35.94 35.33 34.36 34.89 34.34 34.78 35.55 34.40
28.28 29.91 31.93 34.59 32.18 30.65 28.76 29.41 30.87 29.68 27.50 27.23 29.28 28.64 28.58 26.00 25.81 30.50 34.52 33.77 33.51 33.70 34.05 34.20 34.41 34.27 34.76 34.09 34.14 35.02 35.68 35.55 35.13 35.77 36.82 36.94 37.31 39.00 38.26 36.33 35.40 37.47 37.51 36.21 35.60 35.33 34.68 34.32 33.44 33.54 34.17 34.58 35.22 35.07
32.13 31.24 27.70 29.32 28.93 30.82 26.84 28.35 27.96 27.50 29.04 31.57 30.66 27.24 26.31 26.87 28.76 32.81 33.06 32.59 32.87 32.85 32.92 33.40 33.52 33.29 33.44 34.33 34.61 34.33 34.91 35.32 35.65 35.89 35.97 36.25 36.42 36.59 36.56 37.09 37.18 37.56 38.28 37.33 36.28 35.91 35.53 35.15 34.47 34.09 34.52 34.53 34.51 35.97
30.17 30.91 31.07 27.88 27.31 28.56 28.80 28.85 29.05 31.41 33.17 31.86 29.56 28.38 29.64 32.46 32.37 31.55 31.51 31.55 30.79 31.63 32.30 32.41 32.52 33.20 33.63 34.01 34.06 34.36 34.42 34.17 33.29 31.50 31.32 32.11 33.54 35.21 36.27 37.37 37.01 36.60 35.86 36.51 36.03 35.49 35.17 35.12 35.12 35.29 35.42 35.62 35.97 35.39
28.90 32.13 28.65 28.61 25.75 26.46 29.70 31.68 31.14 31.65 32.81 33.84 32.96 31.04 30.79 30.82 30.57 28.96 28.89 29.25 30.11 31.49 32.42 32.51 32.28 32.92 32.50 32.55 32.94 33.34 34.81 35.10 34.42 32.85 31.30 31.26 32.53 34.83 35.82 36.02 35.71 35.89 36.35 36.47 36.02 35.31 36.05 35.64 36.01 35.44 34.63 34.34 34.47 33.97
31.19 30.44 28.66 28.67 27.01 29.24 30.32 30.46 30.70 30.71 30.78 31.12 31.55 31.62 31.64 31.60 30.60 28.96 29.03 29.19 29.49 30.07 31.70 32.03 32.29 33.15 32.43 32.09 31.78 31.28 31.58 33.62 33.68 33.75 34.07 34.35 34.98 35.06 35.38 35.68 36.34 36.34 35.86 35.53 35.88 34.85 34.46 33.66 33.38 32.70 32.34 31.92 32.10 32.26
29.01 28.28 27.59 25.90 26.05 27.87 29.75 29.63 29.49 29.99 29.08 28.94 28.79 29.12 27.90 27.79 27.28 28.63 27.68 27.27 28.66 29.70 31.70 32.43 31.12 31.11 32.69 32.92 32.73 32.78 32.46 32.21 32.69 33.41 33.89 34.75 34.89 34.56 35.05 35.44 35.43 35.47 35.04 35.09 35.35 35.04 33.79 32.76 32.36 31.85 31.41 31.13 31.15 30.59
27.99 28.11 27.56 26.60 25.76 26.36 27.97 28.18 27.28 26.72 26.96 26.25 26.62 27.24 27.90 28.38 27.10 27.50 27.88 28.24 29.19 30.40 31.29 31.04 31.35 31.85 31.24 31.30 31.27 31.37 31.07 31.44 31.60 33.01 33.75 34.33 35.19 35.83 34.13 34.07 33.91 33.96 33.21 33.99 34.31 34.10 33.33 32.61 31.62 31.37 31.12 31.21 31.18 30.56